Powrót do katalogu

STARLINK-37912

AktywnyŁącznośćSSO
NORAD 69698·PAYLOAD·🇺🇸 United States

Wystrzelony Jun 25, 2026 z Vandenberg Space Force Base

Loading…

Następne Przeloty (najbliższe 24 godziny)

TLE

ŚwieżeSource: CelesTrak SupGP

Epoka: Sep 14, 2026, 21:27 UTC

1 69698C 26145X   26257.89423611  .00062686  00000+0  19466-2 0  2574
2 69698  97.2848 104.7098 0001378  96.1372  81.7595 15.33396961    16

Śledź STARLINK-37912 w czasie rzeczywistym z AllMySat

Download on the App Store